Location: Chillicothe
(39.7950°N, 93.5520°W)
Time: 23:44:33
(UTC-06:00)

Vanguard 3 - Pass Details

Date: 30 October 2019
Orbit: 507 x 3263 km, 33.4° (Epoch: 21 November)

Event Time Altitude Azimuth Distance (km) Brightness Sun altitude
Rises 20:54:01 0° 235° (SW) 5,367 12.0 -31.1°
Reaches altitude 10° 20:58:35 10° 228° (SW) 3,871 11.0 -32.0°
Enters shadow 21:05:17 32° 190° (S) 1,911 8.9 -33.2°
Maximum altitude 21:06:40 34° 168° (SSE) 1,711 - -33.5°
Drops below altitude 10° 21:11:42 10° 104° (ESE) 2,379 - -34.4°
Sets 21:13:51 0° 94° (E) 3,089 - -34.9°
